This demonstration page uses our WeatherBlox Daily Observations layout. Learn more.

Left ArrowRight Arrow

41.12389, -100.76542

Hourly Observations for July 19, 2015

Temp ( °F °C ) Dew Point ( °F °C ) Humidity (%) Winds ( mph kmh ) Pressure ( in mb ) Visibility ( mi km ) Precip ( " mm )
12:02 am 00:02 Cloudy with Rain 67 19.4 61 16.1 81 81 NE 16 26 29.97 1015 10 16 0.02 0.51
12:53 am 00:53 Mostly Clear 67 19.4 63 17.2 87 87 ESE 6 9 29.96 1015 10 16 0.03 0.76
1:53 am 01:53 Mostly Cloudy with Light Rain 67 19.4 63 17.2 87 87 ESE 10 17 29.97 1015 10 16 0.00 0.03
2:53 am 02:53 Partly Cloudy 67 19.4 63 17.2 87 87 SE 9 15 29.92 1013 10 16 0.00 0.03
3:53 am 03:53 Clear 65 18.3 62 16.7 90 90 ESE 3 6 29.89 1012 10 16 0.00 0.00
4:53 am 04:53 Clear 63 17.2 62 16.7 97 97 WNW 6 9 29.92 1013 10 16 0.00 0.00
5:53 am 05:53 Clear 64 17.8 61 16.1 90 90 Calm 29.96 1015 10 16 0.00 0.00
6:53 am 06:53 Sunny 62 16.7 60 15.6 93 93 Calm 30.00 1016 10 16 0.00 0.00
7:53 am 07:53 Mostly Cloudy 66 18.9 62 16.7 87 87 WNW 5 7 30.00 1016 10 16 0.00 0.00
8:53 am 08:53 Sunny 70 21.1 63 17.2 79 79 Calm 30.00 1016 10 16 0.00 0.00
9:46 am 09:46 Mostly Cloudy 72 22.2 63 17.2 73 73 Calm 29.97 1015 10 16 0.00 0.00
9:53 am 09:53 Mostly Cloudy 72 22.2 64 17.8 76 76 Calm 30.01 1016 10 16 0.00 0.00
10:12 am 10:12 Cloudy 73 22.8 64 17.8 74 74 E 5 7 29.97 1015 10 16 0.00 0.00
10:53 am 10:53 Mostly Sunny 75 23.9 65 18.3 71 71 SE 5 7 30.00 1016 10 16 0.00 0.00
11:53 am 11:53 Sunny 79 26.1 63 17.2 58 58 E 3 6 29.98 1015 10 16 0.00 0.00
12:53 pm 12:53 Sunny 80 26.7 66 18.9 62 62 S 6 9 29.97 1015 10 16 0.00 0.00
1:53 pm 13:53 Sunny 82 27.8 66 18.9 58 58 VRB 6 9 29.96 1014 10 16 0.00 0.00
2:53 pm 14:53 Sunny 85 29.4 66 18.9 53 53 ESE 6 9 29.94 1014 10 16 0.00 0.00
3:53 pm 15:53 Partly Cloudy 85 29.4 68 20 57 57 SE 8 13 29.93 1014 10 16 0.00 0.00
4:53 pm 16:53 Mostly Sunny 85 29.4 67 19.4 55 55 S 7 11 29.92 1013 10 16 0.00 0.00
5:53 pm 17:53 Sunny 84 28.9 65 18.3 53 53 S 6 9 29.91 1013 10 16 0.00 0.00
6:53 pm 18:53 Sunny 82 27.8 67 19.4 60 60 S 8 13 29.91 1013 10 16 0.00 0.00
7:53 pm 19:53 Partly Cloudy 81 27.2 67 19.4 62 62 S 9 15 29.90 1012 10 16 0.00 0.03
8:53 pm 20:53 Sunny 79 26.1 67 19.4 67 67 S 6 9 29.89 1012 10 16 0.00 0.00
9:53 pm 21:53 Clear 77 25 68 20 74 74 S 8 13 29.90 1013 10 16 0.00 0.00
10:53 pm 22:53 Clear 77 25 67 19.4 71 71 SSW 6 9 29.88 1012 10 16 0.00 0.00
11:53 pm 23:53 Clear 75 23.9 67 19.4 76 76 S 5 7 29.88 1012 10 16 0.00 0.00

Powered by AerisWeather